Zurück zum Katalog

CZ-3B DEB

AktivGTO
NORAD 40180·DEBRIS·🇨🇳 China

Gestartet Dec 19, 2011 von Xichang Satellite Launch Center

Loading…

TLE

VeraltetSource: Space-Track

Epoche: Sep 14, 2026, 01:36 UTC

1 40180U 11077D   26257.06680225  .00002584  00000-0  50901-2 0  9996
2 40180  23.1790 141.6948 7442506 117.6437 333.8446  2.03251315 90919

Verfolge CZ-3B DEB in Echtzeit mit AllMySat

Download on the App Store